Weather History for KCLI - December, 2012

Change the Weather History Date:

Sunday, December 9, 2012

  Actual Average (KGRB) Record (KGRB)
Temperature  
Mean Temperature 28 °F 24 °F  
Max Temperature 32 °F 30 °F 59 °F (1946)
Min Temperature 23 °F 17 °F -14 °F (1927)
Degree Days  
Heating Degree Days 38 42  
Month to date heating degree days 359  
Since 1 July heating degree days 2099  
Cooling Degree Days 0 0  
Month to date cooling degree days 0  
Year to date cooling degree days 398  
Moisture  
Dew Point 29 °F    
Average Humidity 92    
Maximum Humidity 100    
Minimum Humidity 80    
Precipitation  
Precipitation 0.06 in 0.05 in 0.92 in (1907)
Month to date precipitation 0.52  
Year to date precipitation 28.53  
Snow  
Snow 0.00 in 0.50 in 11.20 in (2009)
Month to date snowfall 3.6  
Since 1 July snowfall 7.8  
Snow Depth -    
Sea Level Pressure  
Sea Level Pressure 29.96 in    
Wind  
Wind Speed 6 mph (ENE)    
Max Wind Speed 13 mph    
Max Gust Speed 17 mph    
Visibility 6 miles    
Events Snow    
T = Trace of Precipitation, MM = Missing Value Source: NWS Daily Summary

Daily Weather History Graph

Daily Weather History Graph

Search for Another Location

Airport or City:

Trip Planner

Search our weather history database for the weather conditions in past years. The results will help you decide how hot, cold, wet, or windy it might be!

Date:

Astronomy

Dec. 09, 2012 Rise Set
Actual Time 7:20 AM CST 4:14 PM CST
Civil Twilight 6:47 AM CST 4:47 PM CST
Nautical Twilight 6:10 AM CST 5:24 PM CST
Astronomical Twilight 5:34 AM CST 6:00 PM CST
Moon 2:45 AM CST (12/9) 1:27 PM CST (12/9)
Length of Visible Light 10h 00m
Length of Day
8h 54m
Waning Crescent, 18% of the Moon is Illuminated
Dec 9
Waning Crescent
Dec 13
New
Dec 19
First Quarter
Dec 28
Full
Jan 4
Last Quarter

Hourly Weather History & Observations

Time (CST) Temp. Windchill Dew Point Humidity Pressure Visibility Wind Dir Wind Speed Gust Speed Precip Events Conditions
12:15 AM 23.0 °F 18.4 °F 23.0 °F 100% 30.14 in 10.0 mi NE 3.5 mph - N/A   Clear
12:35 AM 24.8 °F 19.1 °F 23.0 °F 93% 30.14 in 10.0 mi NNE 4.6 mph - N/A   Clear
12:55 AM 24.8 °F 19.1 °F 23.0 °F 93% 30.13 in 10.0 mi ENE 4.6 mph - N/A   Clear
1:15 AM 26.6 °F 20.0 °F 23.0 °F 86% 30.13 in 10.0 mi ENE 5.8 mph - N/A   Clear
1:35 AM 26.6 °F 20.0 °F 23.0 °F 86% 30.12 in 10.0 mi ENE 5.8 mph - N/A   Clear
1:55 AM 28.4 °F 22.2 °F 23.0 °F 80% 30.13 in 10.0 mi East 5.8 mph - N/A   Clear
2:15 AM 28.4 °F 23.3 °F 23.0 °F 80% 30.14 in 10.0 mi ENE 4.6 mph - N/A   Clear
2:35 AM 28.4 °F 23.3 °F 23.0 °F 80% 30.14 in 10.0 mi NE 4.6 mph - N/A   Mostly Cloudy
2:55 AM 28.4 °F 21.2 °F 23.0 °F 80% 30.14 in 10.0 mi NE 6.9 mph - N/A   Scattered Clouds
3:15 AM 28.4 °F 23.3 °F 23.0 °F 80% 30.13 in 10.0 mi NNE 4.6 mph - N/A   Clear
3:35 AM 28.4 °F 21.2 °F 23.0 °F 80% 30.12 in 10.0 mi NNE 6.9 mph - N/A   Clear
3:55 AM 28.4 °F 22.2 °F 23.0 °F 80% 30.11 in 10.0 mi NE 5.8 mph - N/A   Clear
4:15 AM 26.6 °F 19.1 °F 23.0 °F 86% 30.10 in 10.0 mi ENE 6.9 mph - N/A   Scattered Clouds
4:35 AM 26.6 °F 19.1 °F 23.0 °F 86% 30.08 in 10.0 mi ENE 6.9 mph - N/A   Scattered Clouds
4:55 AM 28.4 °F 23.3 °F 23.0 °F 80% 30.09 in 10.0 mi ENE 4.6 mph - N/A   Mostly Cloudy
5:15 AM 28.4 °F 23.3 °F 24.8 °F 86% 30.09 in 10.0 mi ENE 4.6 mph - N/A   Overcast
5:35 AM 30.2 °F 24.3 °F 26.6 °F 86% 30.10 in 10.0 mi NE 5.8 mph - N/A   Overcast
5:55 AM 30.2 °F 24.3 °F 26.6 °F 86% 30.09 in 10.0 mi ENE 5.8 mph - N/A   Overcast
6:15 AM 30.2 °F 25.4 °F 26.6 °F 86% 30.10 in 10.0 mi ENE 4.6 mph - N/A   Overcast
6:35 AM 30.2 °F 25.4 °F 26.6 °F 86% 30.11 in 10.0 mi ENE 4.6 mph - N/A   Overcast
6:55 AM 30.2 °F 25.4 °F 26.6 °F 86% 30.11 in 10.0 mi ENE 4.6 mph - N/A   Overcast
7:15 AM 30.2 °F 23.4 °F 26.6 °F 86% 30.10 in 10.0 mi ENE 6.9 mph - N/A   Overcast
7:55 AM 32.0 °F 26.4 °F 28.4 °F 87% 30.09 in 10.0 mi ENE 5.8 mph - N/A   Overcast
8:15 AM 32.0 °F 26.4 °F 28.4 °F 87% 30.08 in 10.0 mi ENE 5.8 mph - N/A   Overcast
8:35 AM 32.0 °F 24.8 °F 28.4 °F 87% 30.08 in 10.0 mi East 8.1 mph - N/A   Overcast
8:55 AM 32.0 °F 24.8 °F 28.4 °F 87% 30.07 in 10.0 mi East 8.1 mph - N/A   Overcast
9:15 AM 32.0 °F 24.2 °F 26.6 °F 80% 30.06 in 10.0 mi East 9.2 mph - N/A   Overcast
9:35 AM 32.0 °F 23.6 °F 26.6 °F 80% 30.06 in 10.0 mi East 10.4 mph - N/A   Overcast
9:55 AM 32.0 °F 25.6 °F 26.6 °F 80% 30.06 in 10.0 mi East 6.9 mph 16.1 mph N/A   Overcast
10:15 AM 32.0 °F 23.0 °F 26.6 °F 80% 30.04 in 7.0 mi East 11.5 mph 17.3 mph N/A Snow Light Snow
10:35 AM 32.0 °F 22.5 °F 28.4 °F 87% 30.04 in 3.0 mi East 12.7 mph 17.3 mph N/A Snow Light Snow
10:55 AM 32.0 °F 23.6 °F 30.2 °F 93% 30.02 in 1.5 mi East 10.4 mph - N/A Snow Light Snow
11:15 AM 32.0 °F 24.8 °F 30.2 °F 93% 30.01 in 2.0 mi ENE 8.1 mph - N/A Snow Light Snow
11:35 AM 32.0 °F 24.8 °F 30.2 °F 93% 30.00 in 2.5 mi ENE 8.1 mph - N/A Snow Light Snow
11:55 AM 32.0 °F 25.6 °F 30.2 °F 93% 29.98 in 1.8 mi NE 6.9 mph - N/A Snow Light Snow
12:15 PM 32.0 °F 24.8 °F 30.2 °F 93% 29.96 in 2.5 mi NE 8.1 mph - N/A Snow Light Snow
12:35 PM 32.0 °F 24.8 °F 30.2 °F 93% 29.94 in 1.8 mi NE 8.1 mph - N/A Snow Light Snow
12:55 PM 32.0 °F 25.6 °F 32.0 °F 100% 29.94 in 1.8 mi NE 6.9 mph - N/A Snow Light Snow
1:15 PM 32.0 °F 24.8 °F 32.0 °F 100% 29.92 in 1.8 mi ENE 8.1 mph - 0.01 in Snow Light Snow
1:35 PM 32.0 °F 24.8 °F 32.0 °F 100% 29.91 in 1.5 mi ENE 8.1 mph - 0.01 in Snow Light Snow
1:55 PM 32.0 °F 23.6 °F 32.0 °F 100% 29.89 in 1.5 mi ENE 10.4 mph - 0.01 in Snow Light Snow
2:15 PM 32.0 °F 24.2 °F 32.0 °F 100% 29.88 in 1.2 mi ENE 9.2 mph - N/A Snow Light Snow
2:35 PM 32.0 °F 23.6 °F 32.0 °F 100% 29.87 in 1.8 mi ENE 10.4 mph - N/A Snow Light Snow
3:15 PM 32.0 °F 24.2 °F 32.0 °F 100% 29.85 in 2.5 mi ENE 9.2 mph - N/A Snow Light Snow
3:35 PM 32.0 °F 24.2 °F 32.0 °F 100% 29.84 in 1.8 mi ENE 9.2 mph 16.1 mph N/A Snow Light Snow
3:55 PM 32.0 °F 23.6 °F 32.0 °F 100% 29.84 in 1.5 mi East 10.4 mph 16.1 mph 0.01 in Snow Light Snow
4:15 PM 32.0 °F 25.6 °F 32.0 °F 100% 29.84 in 1.0 mi ENE 6.9 mph - N/A Snow Light Snow
4:35 PM 32.0 °F 24.2 °F 32.0 °F 100% 29.83 in 1.0 mi East 9.2 mph - N/A Snow Light Snow
4:55 PM 32.0 °F 24.2 °F 32.0 °F 100% 29.82 in 2.0 mi East 9.2 mph 17.3 mph N/A Snow Light Snow
5:15 PM 32.0 °F 24.8 °F 32.0 °F 100% 29.81 in 2.5 mi East 8.1 mph - N/A Snow Light Snow
5:35 PM 32.0 °F 25.6 °F 32.0 °F 100% 29.82 in 1.5 mi ENE 6.9 mph - N/A Snow Light Snow
5:55 PM 32.0 °F 24.8 °F 32.0 °F 100% 29.81 in 2.5 mi ENE 8.1 mph - N/A Snow Light Snow
6:15 PM 32.0 °F 25.6 °F 32.0 °F 100% 29.81 in 2.5 mi ENE 6.9 mph - 0.01 in Snow Light Snow
6:35 PM 32.0 °F 26.4 °F 32.0 °F 100% 29.81 in 2.5 mi NE 5.8 mph - 0.01 in Snow Light Snow
6:55 PM 32.0 °F 25.6 °F 32.0 °F 100% 29.81 in 3.0 mi ENE 6.9 mph - 0.01 in Snow Light Snow
7:15 PM 32.0 °F 27.5 °F 32.0 °F 100% 29.81 in 2.0 mi NE 4.6 mph - 0.01 in Snow Light Snow
7:35 PM 32.0 °F 26.4 °F 32.0 °F 100% 29.80 in 2.5 mi NE 5.8 mph - 0.01 in Snow Light Snow
7:55 PM 32.0 °F 26.4 °F 32.0 °F 100% 29.80 in 3.0 mi NE 5.8 mph - 0.02 in Snow Light Snow
8:15 PM 32.0 °F 25.6 °F 32.0 °F 100% 29.79 in 2.0 mi NE 6.9 mph - N/A Snow Light Snow
8:35 PM 32.0 °F 24.8 °F 32.0 °F 100% 29.76 in 3.0 mi NE 8.1 mph - N/A Snow Light Snow
8:55 PM 32.0 °F 26.4 °F 32.0 °F 100% 29.77 in 3.0 mi NNE 5.8 mph - N/A Snow Light Snow
9:15 PM 32.0 °F 25.6 °F 32.0 °F 100% 29.74 in 2.5 mi NE 6.9 mph - N/A Snow Light Snow
9:35 PM 32.0 °F 26.4 °F 30.2 °F 93% 29.75 in 1.8 mi NE 5.8 mph - N/A Snow Light Snow
10:15 PM 32.0 °F 26.4 °F 30.2 °F 93% 29.74 in 7.0 mi NE 5.8 mph - N/A Snow Light Snow
10:35 PM 32.0 °F 26.4 °F 30.2 °F 93% 29.74 in 4.0 mi ENE 5.8 mph - 0.01 in Snow Light Snow
10:55 PM 32.0 °F 25.6 °F 30.2 °F 93% 29.73 in 7.0 mi ENE 6.9 mph - 0.01 in Snow Light Snow
11:15 PM 32.0 °F 28.7 °F 30.2 °F 93% 29.74 in 4.0 mi North 3.5 mph - N/A Snow Light Snow
11:35 PM 30.2 °F 23.4 °F 30.2 °F 100% 29.73 in 2.5 mi NNE 6.9 mph - N/A Snow Light Snow